Regional Weather Roundup
Issued by NWS Upton, NY

Current Version | Previous Version | Text Only | Print | Product List | Glossary On
Versions: 1 2 3 4 5 6 7 8 9 10 11 12 13 14 15 16 17 18 19 20 21 22 23 24 25 26 27 28 29 30 31 32 33 34 35 36 37 38 39 40 41 42 43 44 45 46 47 48 49 50
000
ASUS41 KOKX 242108
RWROKX

REGIONAL WEATHER ROUNDUP
NATIONAL WEATHER SERVICE NEW YORK NY
400 PM EST FRI NOV 24 2017

NOTE: "FAIR" INDICATES FEW OR NO CLOUDS BELOW 12,000 FEET WITH NO
SIGNIFICANT WEATHER AND/OR OBSTRUCTIONS TO VISIBILITY.

NYZ071-072-176-178-NJZ106-104-242200-
NEW YORK CITY METRO AREA

CITY           SKY/WX    TMP DP  RH WIND       PRES   REMARKS
Central Park   CLEAR     49  23  36 VRB3      29.98S
Bronx Bot Gard   N/A     50  23  34 CALM      29.95F
Bronx Lehman C   N/A     50 N/A N/A SW3         N/A
LaGuardia APRT PTCLDY    51  21  30 SW6       29.95F
Queens College   N/A     50 N/A N/A SW7         N/A
Kennedy INTL   PTCLDY    46  30  53 S9        29.98F
Breezy Point   NOT AVBL
Brooklyn Coll    N/A     50 N/A N/A S6          N/A
Staten Island    N/A     50 N/A N/A SW5         N/A
Newark/Liberty PTCLDY    50  24  36 S8        29.96S
Teterboro      CLEAR     50  24  36 S8        29.95S
$$

NYZ177-179-078>081-242200-
LONG ISLAND NEW YORK

CITY           SKY/WX    TMP DP  RH WIND       PRES   REMARKS
Jones Beach    NOT AVBL
Wantagh          N/A     46 N/A N/A S6          N/A
Matinecock PT  NOT AVBL
Farmingdale    CLEAR     46  27  47 S9        29.97S
MacArthur/ISP  CLEAR     46  29  51 S8        29.97S
Shirley        CLEAR     46  31  55 S7        29.98S
Mt Sinai Harb  NOT AVBL
Westhampton    CLEAR     45  31  58 SW5       29.99S
East Hampton   FAIR      45  34  66 SW3       29.97S
Southold       NOT AVBL
Montauk          N/A     48  36  63 SW5       29.99S
$$

NYZ052-065-067-242200-
HUDSON VALLEY

CITY           SKY/WX    TMP DP  RH WIND       PRES   REMARKS
White Plains   CLEAR     47  21  35 S3        29.94S
Larchmont Harb NOT AVBL
Croton On Huds NOT AVBL
Somers           N/A     46 N/A N/A S7          N/A
Brewster         N/A     46 N/A N/A S2          N/A
Newburgh       CLEAR     50  27  40 SW7       29.93S
Montgomery     CLEAR     48  25  40 SW7       29.90F
Suffern          N/A     48 N/A N/A S6          N/A
Poughkeepsie   CLEAR     50  24  36 S7        29.91F
Albany         PTCLDY    47  25  42 S13       29.87F
$$

NJZ001-105-106-008-010-013-015-019>022-104-242200-
NEW JERSEY

CITY           SKY/WX    TMP DP  RH WIND       PRES   REMARKS
Newark/Liberty PTCLDY    50  24  36 S8        29.96S
Teterboro      CLEAR     50  24  36 S8        29.95S
Caldwell       CLEAR     50  22  33 VRB5      29.95F
Somerville     CLEAR     49  22  34 S6        29.94F
Linden         FAIR      50  22  32 CALM      29.96S
Perth Amboy    NOT AVBL
Sussex         CLEAR     48  22  35 S7        29.93S
Andover          N/A     48  22  35 S6        29.93F
Trenton        CLEAR     49  24  37 S8        29.96F
Millville      CLEAR     48  29  47 VRB3      29.99F
Atlantic City  CLEAR     49  33  54 S9        29.99S
Wrightstown    CLEAR     49  26  40 SW6       29.95S
Toms River     CLEAR     50  27  40 SW5       29.99S
Belmar         NOT AVBL
$$

PAZ047>061-062-071-242200-
EASTERN PENNSYLVANIA

CITY           SKY/WX    TMP DP  RH WIND       PRES   REMARKS
Philadelphia   CLEAR     50  20  30 SW8       29.98S
Allentown      CLEAR     50  23  34 SW5       29.94F
Scranton       CLEAR     50  22  33 W6        29.88F
$$

CTZ002-004>006-009-010-012-RIZ004-006-007-MAZ004-011-015-242200-
SOUTHERN NEW ENGLAND
 IN CT

CITY           SKY/WX    TMP DP  RH WIND       PRES   REMARKS
Bradley INTL   PTCLDY    48  24  39 S10       29.92F
Hartford       CLEAR     48  27  44 S8        29.94F
Danbury        CLEAR     49  23  36 S6        29.95S
Wtrbury/Oxford CLEAR     46  26  45 S8        29.94S
Norwalk Harbor NOT AVBL
Bridgeport     CLEAR     48  30  49 SW7       29.96F
Meriden        CLEAR     45  25  45 S6        29.95F
New Haven      CLEAR     46  32  58 S5        29.96F
Chester        FAIR      46  30  53 S6        29.95F
Groton         CLEAR     46  30  53 SW6       29.96F
Wilimantic     CLEAR     48  27  44 S10       29.95S

 IN RI

CITY           SKY/WX    TMP DP  RH WIND       PRES   REMARKS
Providence     CLEAR     47  29  49 SW10      29.96F
Block Island     N/A     47  35  63 MISG        N/A
Westerly       CLEAR     48  32  53 W6        29.98S
 IN MA

CITY           SKY/WX    TMP DP  RH WIND       PRES   REMARKS
Boston         PTCLDY    47  27  45 S13       29.93S
Worcester      CLEAR     45  23  42 S7        29.91S
Westfield      CLEAR     47  24  40 S9        29.91S
Provincetown   CLEAR     46  31  55 SW14      29.96
Nantucket      CLEAR     46  37  71 SW10      29.99R
$$

ANZ330-335-338-340-345-350-353-355-242200-
COASTAL MARINE OBSERVATIONS


STATION/POSITION TIME  SKY/WX   TEMP    WIND        PRES    VSBY  WAVE
                                AIR SEA DIR/SP/G                  HT/PER
                 (UTC)          (F)     (DEG/KT/KT) (MB)    (MI)  (FT/S)
NY HARB ENTRANCE 1950            47 56  190/  6/  8 1014.7          3/11
20 S FIRE ISLAND 1950            47 56  240/  8/ 10 1015.7          3/11
GREAT SOUTH BAY  2030            45 46  220/  6/  6   N/A
HUDSON CANYON    1950            49 60  260/  6/  8 1015.7          5/11
KINGS POINT      2030            50 50  240/  6/ 10 1015.3
EXECUTION ROCKS  2030            51     190/ 10/ 12   N/A
WESTERN LI SOUND 1949            50     240/ 10/ 12   N/A           1
CENTRAL LI SOUND NOT AVBL
ROBBINS REEF     2036            50     190/  7/  9 1015.1
$$


>>>>>>>>>>>>>>>>>>>>>>>>>>>> KEY <<<<<<<<<<<<<<<<<<<<<<<<<<<
>                                                          <
>     SKY/WX - Sky Condition/Present Weather               <
>     TMP    - Temperature in Fahrenheit                   <
>     DP     - Dew Point in Fahrenheit                     <
>     RH     - Relative Humidity in Percent                <
>     WIND   - Direction (from) and Speed in MPH           <
>     PRES   - Mean Sea Level Pressure (inches of Hg)      <
>     WCI    - Wind Chill Index                            <
>     VSB    - VISIBILITY IN MILES                         <
>     HX     - HEAT INDEX                                  <
>     TC     - TEMPERATURE IN CELSIUS                      <
>     VRB    - VARIABLE WIND DIRECTION                     <
>                                                          <
>>>>>>>>>>>>>>>>>>>>>>>>>>>> KEY <<<<<<<<<<<<<<<<<<<<<<<<<<<



USA.gov is the U.S. government's official web portal to all federal, state and local government web resources and services.